Simultaneous Nadir Overpasses (SNOs) Predictions

Prediction of SNOs between LANDSAT-8 and METOP-A Satellite Orbit:

Table of predicted SNOs for the next 14.0 days since TLE Epoch: 8/7/2021
Index Date (LANDSAT-8) Time (LANDSAT-8) Lat,Lon (LANDSAT-8) SZA (LANDSAT-8 ) Date (METOP-A) Time (METOP-A) Lat,Lon (METOP-A) SZA (METOP-A ) Distance(km) Time Diff (sec)
1 08/09/2021 09:47:18 81.35, 77.23 67.98 08/09/2021 09:46:18 81.35, 77.12 67.94 2.03 60
2 08/09/2021 10:36:45 -81.35,-115.18 112.02 08/09/2021 10:36:58 -81.34,-115.37 112.04 3.27 13
3 08/12/2021 05:21:35 81.34, 143.37 68.78 08/12/2021 05:20:39 81.35, 143.39 68.77 1.39 56
4 08/12/2021 06:11:02 -81.34, -49.01 111.22 08/12/2021 06:11:19 -81.34, -49.06 111.21 0.94 17
5 08/15/2021 00:55:51 81.34,-150.14 69.66 08/15/2021 00:54:59 81.34,-149.97 69.66 2.88 52
6 08/15/2021 01:45:18 -81.34, 17.51 110.33 08/15/2021 01:45:39 -81.33, 17.62 110.32 2.23 21
7 08/17/2021 20:30:06 81.34, -83.68 70.57 08/17/2021 20:29:19 81.34, -83.73 70.54 0.88 47
8 08/17/2021 21:19:33 -81.34, 83.99 109.42 08/17/2021 21:19:59 -81.33, 83.89 109.43 2.08 26
9 08/20/2021 16:04:22 81.34, -17.25 71.50 08/20/2021 16:03:39 81.33, -17.13 71.49 2.19 43



Historial Predications of SNOs between LANDSAT-8 and METOP-A
